Wetterdaten: Mittwoch, 17.08.2016
Datum Zeit Temp. A. Aussentemp2 Feuchte A. Luftdruck Regen Wind Richtung Richtung Sonnenschein Helligkeit Solar
17.08.2016 00:01 18,4 C 19,9 C 62 % 1014,7 hPa 0,0 l/m 25,8 km/h (4 Bft) O-NO67.5 75 0 min 0 lux 0 W/m
17.08.2016 00:06 18,3 C 19,9 C 62 % 1014,7 hPa 0,0 l/m 20,6 km/h (4 Bft) NO67.5 55 0 min 0 lux 0 W/m
17.08.2016 00:11 18,2 C 19,9 C 62 % 1014,7 hPa 0,0 l/m 24,2 km/h (4 Bft) O67.5 80 0 min 0 lux 0 W/m
17.08.2016 00:16 18,2 C 19,8 C 62 % 1014,7 hPa 0,0 l/m 16,2 km/h (3 Bft) NO45 55 0 min 0 lux 0 W/m
17.08.2016 00:21 18,1 C 19,8 C 62 % 1014,7 hPa 0,0 l/m 31,3 km/h (5 Bft) O-NO45 70 0 min 0 lux 0 W/m
17.08.2016 00:26 18,1 C 19,8 C 63 % 1014,7 hPa 0,0 l/m 31,1 km/h (5 Bft) NO45 55 0 min 0 lux 0 W/m
17.08.2016 00:31 18,0 C 19,7 C 63 % 1014,7 hPa 0,0 l/m 20,3 km/h (4 Bft) O45 80 0 min 0 lux 0 W/m
17.08.2016 00:36 18,0 C 19,9 C 63 % 1014,7 hPa 0,0 l/m 16,0 km/h (3 Bft) O45 80 0 min 0 lux 0 W/m
17.08.2016 00:41 17,9 C 19,8 C 63 % 1014,7 hPa 0,0 l/m 19,6 km/h (3 Bft) O-NO45 65 0 min 0 lux 0 W/m
17.08.2016 00:46 17,8 C 19,9 C 63 % 1014,7 hPa 0,0 l/m 9,6 km/h (2 Bft) O-NO22.5 75 0 min 0 lux 0 W/m
17.08.2016 00:51 17,7 C 19,8 C 63 % 1014,7 hPa 0,0 l/m 21,1 km/h (4 Bft) O-NO45 75 0 min 0 lux 0 W/m
17.08.2016 00:56 17,7 C 19,7 C 63 % 1014,7 hPa 0,0 l/m 18,0 km/h (3 Bft) O-NO45 75 0 min 0 lux 0 W/m
17.08.2016 01:01 17,6 C 19,7 C 63 % 1014,7 hPa 0,0 l/m 15,0 km/h (3 Bft) O45 80 0 min 0 lux 0 W/m
17.08.2016 01:06 17,6 C 19,7 C 64 % 1014,7 hPa 0,0 l/m 25,1 km/h (4 Bft) O-NO45 65 0 min 0 lux 0 W/m
17.08.2016 01:11 17,6 C 19,6 C 64 % 1014,7 hPa 0,0 l/m 13,5 km/h (3 Bft) O-NO67.5 70 0 min 0 lux 0 W/m
17.08.2016 01:16 17,5 C 19,6 C 64 % 1014,7 hPa 0,0 l/m 14,1 km/h (3 Bft) O45 85 0 min 0 lux 0 W/m
17.08.2016 01:21 17,3 C 19,6 C 65 % 1014,7 hPa 0,0 l/m 16,5 km/h (3 Bft) O-NO67.5 65 0 min 0 lux 0 W/m
17.08.2016 01:26 17,3 C 19,5 C 65 % 1014,7 hPa 0,0 l/m 15,3 km/h (3 Bft) O-NO45 75 0 min 0 lux 0 W/m
17.08.2016 01:31 17,2 C 19,6 C 65 % 1014,7 hPa 0,0 l/m 18,0 km/h (3 Bft) O-NO67.5 70 0 min 0 lux 0 W/m
17.08.2016 01:36 17,2 C 19,6 C 65 % 1014,7 hPa 0,0 l/m 15,9 km/h (3 Bft) O45 90 0 min 0 lux 0 W/m
17.08.2016 01:41 17,2 C 19,4 C 65 % 1014,7 hPa 0,0 l/m 24,1 km/h (4 Bft) O22.5 80 0 min 0 lux 0 W/m
17.08.2016 01:46 17,2 C 19,4 C 65 % 1014,7 hPa 0,0 l/m 26,5 km/h (4 Bft) O45 90 0 min 0 lux 0 W/m
17.08.2016 01:51 17,2 C 19,3 C 64 % 1014,7 hPa 0,0 l/m 26,0 km/h (4 Bft) O67.5 90 0 min 0 lux 0 W/m
17.08.2016 01:56 17,2 C 19,3 C 65 % 1014,7 hPa 0,0 l/m 25,1 km/h (4 Bft) O45 95 0 min 0 lux 0 W/m
17.08.2016 02:02 17,2 C 19,3 C 65 % 1014,7 hPa 0,0 l/m 27,6 km/h (5 Bft) O45 95 0 min 0 lux 0 W/m
17.08.2016 02:07 17,0 C 19,2 C 65 % 1014,7 hPa 0,0 l/m 24,8 km/h (4 Bft) O67.5 80 0 min 0 lux 0 W/m
17.08.2016 02:12 17,0 C 19,2 C 65 % 1014,7 hPa 0,0 l/m 20,3 km/h (4 Bft) O22.5 80 0 min 0 lux 0 W/m
17.08.2016 02:16 17,0 C 19,2 C 65 % 1014,7 hPa 0,0 l/m 27,6 km/h (5 Bft) O-NO67.5 60 0 min 0 lux 0 W/m
17.08.2016 02:22 16,9 C 19,2 C 65 % 1014,7 hPa 0,0 l/m 23,7 km/h (4 Bft) O-NO22.5 75 0 min 0 lux 0 W/m
17.08.2016 02:27 16,8 C 19,2 C 66 % 1014,7 hPa 0,0 l/m 17,1 km/h (3 Bft) O-NO22.5 70 0 min 0 lux 0 W/m
17.08.2016 02:32 16,8 C 19,1 C 66 % 1014,7 hPa 0,0 l/m 16,5 km/h (3 Bft) O45 95 0 min 0 lux 0 W/m
17.08.2016 02:37 16,8 C 19,1 C 66 % 1014,7 hPa 0,0 l/m 17,5 km/h (3 Bft) O45 85 0 min 0 lux 0 W/m
17.08.2016 02:42 16,7 C 19,2 C 66 % 1014,7 hPa 0,0 l/m 18,5 km/h (3 Bft) O45 80 0 min 0 lux 0 W/m
17.08.2016 02:47 16,6 C 19,2 C 66 % 1014,7 hPa 0,0 l/m 18,1 km/h (3 Bft) O45 95 0 min 0 lux 0 W/m
17.08.2016 02:52 16,5 C 19,2 C 67 % 1014,7 hPa 0,0 l/m 13,8 km/h (3 Bft) O45 85 0 min 0 lux 0 W/m
17.08.2016 02:57 16,4 C 19,1 C 66 % 1014,7 hPa 0,0 l/m 14,9 km/h (3 Bft) O45 80 0 min 0 lux 0 W/m
17.08.2016 03:02 16,4 C 19,2 C 66 % 1014,7 hPa 0,0 l/m 8,0 km/h (2 Bft) O-NO45 60 0 min 0 lux 0 W/m
17.08.2016 03:07 16,2 C 19,1 C 67 % 1014,7 hPa 0,0 l/m 16,1 km/h (3 Bft) O22.5 85 0 min 0 lux 0 W/m
17.08.2016 03:12 16,2 C 19,1 C 67 % 1014,7 hPa 0,0 l/m 9,4 km/h (2 Bft) O22.5 90 0 min 0 lux 0 W/m
17.08.2016 03:17 16,1 C 19,0 C 67 % 1014,7 hPa 0,0 l/m 9,9 km/h (2 Bft) O-NO45 75 0 min 0 lux 0 W/m
17.08.2016 03:22 16,0 C 19,0 C 68 % 1014,7 hPa 0,0 l/m 11,1 km/h (2 Bft) O22.5 100 0 min 0 lux 0 W/m
17.08.2016 03:27 15,8 C 18,9 C 68 % 1014,7 hPa 0,0 l/m 9,2 km/h (2 Bft) O45 95 0 min 0 lux 0 W/m
17.08.2016 03:31 15,6 C 18,9 C 69 % 1014,7 hPa 0,0 l/m 9,1 km/h (2 Bft) O22.5 95 0 min 0 lux 0 W/m
17.08.2016 03:37 15,6 C 18,9 C 69 % 1014,7 hPa 0,0 l/m 1,9 km/h (1 Bft) O22.5 85 0 min 0 lux 0 W/m
17.08.2016 03:42 15,5 C 19,0 C 69 % 1013,7 hPa 0,0 l/m 7,4 km/h (2 Bft) O22.5 90 0 min 0 lux 0 W/m
17.08.2016 03:47 15,4 C 18,9 C 69 % 1013,7 hPa 0,0 l/m 5,4 km/h (2 Bft) O22.5 90 0 min 0 lux 0 W/m
17.08.2016 03:52 15,3 C 18,4 C 69 % 1013,7 hPa 0,0 l/m 1,1 km/h (1 Bft) O-SO22.5 105 0 min 0 lux 0 W/m
17.08.2016 03:57 15,1 C 18,2 C 69 % 1013,7 hPa 0,0 l/m 0,3 km/h (0 Bft) O-SO 105 0 min 0 lux 0 W/m
17.08.2016 04:02 15,0 C 18,2 C 69 % 1013,7 hPa 0,0 l/m 0,3 km/h (0 Bft) O-SO 105 0 min 0 lux 0 W/m
17.08.2016 04:07 14,9 C 18,5 C 70 % 1013,7 hPa 0,0 l/m 0,0 km/h (0 Bft) O-SO 105 0 min 0 lux 0 W/m
17.08.2016 04:12 14,7 C 18,6 C 70 % 1013,7 hPa 0,0 l/m 0,1 km/h (0 Bft) O-SO 105 0 min 0 lux 0 W/m
17.08.2016 04:16 14,6 C 18,6 C 71 % 1013,7 hPa 0,0 l/m 0,0 km/h (0 Bft) O-SO 105 0 min 0 lux 0 W/m
17.08.2016 04:22 14,6 C 18,5 C 71 % 1013,7 hPa 0,0 l/m 0,6 km/h (0 Bft) O-SO22.5 105 0 min 0 lux 0 W/m
17.08.2016 04:27 14,6 C 18,5 C 72 % 1013,7 hPa 0,0 l/m 0,8 km/h (0 Bft) O22.5 95 0 min 0 lux 0 W/m
17.08.2016 04:32 14,6 C 18,4 C 72 % 1013,7 hPa 0,0 l/m 0,1 km/h (0 Bft) O 95 0 min 0 lux 0 W/m
17.08.2016 04:37 14,7 C 18,5 C 72 % 1013,7 hPa 0,0 l/m 0,0 km/h (0 Bft) O 90 0 min 0 lux 0 W/m
17.08.2016 04:42 14,7 C 18,3 C 72 % 1013,7 hPa 0,0 l/m 0,4 km/h (0 Bft) O22.5 95 0 min 0 lux 0 W/m
17.08.2016 04:47 14,5 C 18,4 C 72 % 1013,7 hPa 0,0 l/m 0,1 km/h (0 Bft) O 90 0 min 0 lux 0 W/m
17.08.2016 04:52 14,5 C 18,4 C 73 % 1013,7 hPa 0,0 l/m 5,3 km/h (1 Bft) O22.5 90 0 min 0 lux 0 W/m
17.08.2016 04:57 14,5 C 18,4 C 73 % 1013,7 hPa 0,0 l/m 0,6 km/h (0 Bft) O22.5 95 0 min 0 lux 0 W/m
17.08.2016 05:02 14,6 C 18,6 C 72 % 1013,7 hPa 0,0 l/m 7,6 km/h (2 Bft) O-NO22.5 75 0 min 0 lux 0 W/m
17.08.2016 05:07 14,6 C 18,5 C 73 % 1013,7 hPa 0,0 l/m 10,3 km/h (2 Bft) O-NO22.5 75 0 min 0 lux 0 W/m
17.08.2016 05:12 14,7 C 18,3 C 73 % 1013,7 hPa 0,0 l/m 9,4 km/h (2 Bft) O45 90 0 min 0 lux 0 W/m
17.08.2016 05:17 14,7 C 18,3 C 72 % 1013,7 hPa 0,0 l/m 0,4 km/h (0 Bft) O-NO 60 0 min 0 lux 0 W/m
17.08.2016 05:22 14,4 C 18,3 C 72 % 1013,7 hPa 0,0 l/m 0,4 km/h (0 Bft) O-NO 60 0 min 0 lux 0 W/m
17.08.2016 05:27 14,3 C 18,2 C 72 % 1013,7 hPa 0,0 l/m 5,3 km/h (1 Bft) NO 45 0 min 0 lux 0 W/m
17.08.2016 05:31 14,2 C 18,2 C 72 % 1013,7 hPa 0,0 l/m 0,0 km/h (0 Bft) NO 45 0 min 0 lux 0 W/m
17.08.2016 05:37 14,0 C 18,2 C 73 % 1013,7 hPa 0,0 l/m 0,1 km/h (0 Bft) NO 45 0 min 0 lux 0 W/m
17.08.2016 05:42 14,1 C 18,2 C 74 % 1013,7 hPa 0,0 l/m 7,4 km/h (2 Bft) O22.5 95 0 min 0 lux 0 W/m
17.08.2016 05:47 14,1 C 18,3 C 74 % 1013,7 hPa 0,0 l/m 10,5 km/h (2 Bft) O22.5 85 0 min 0 lux 0 W/m
17.08.2016 05:52 14,2 C 18,2 C 74 % 1013,7 hPa 0,0 l/m 7,8 km/h (2 Bft) O22.5 80 0 min 0 lux 0 W/m
17.08.2016 05:57 14,2 C 17,9 C 74 % 1013,7 hPa 0,0 l/m 6,1 km/h (2 Bft) O-NO22.5 70 0 min 0 lux 0 W/m
17.08.2016 06:02 14,2 C 18,1 C 74 % 1013,7 hPa 0,0 l/m 0,3 km/h (0 Bft) O-NO 75 0 min 35 lux 0 W/m
17.08.2016 06:07 14,1 C 18,2 C 74 % 1013,7 hPa 0,0 l/m 11,7 km/h (2 Bft) NO45 45 0 min 81 lux 0 W/m
17.08.2016 06:12 14,2 C 18,0 C 75 % 1013,7 hPa 0,0 l/m 9,0 km/h (2 Bft) O-NO45 70 0 min 115 lux 0 W/m
17.08.2016 06:16 14,2 C 18,1 C 75 % 1013,7 hPa 0,0 l/m 5,1 km/h (1 Bft) O-NO45 60 0 min 269 lux 0 W/m
17.08.2016 06:22 14,2 C 17,8 C 74 % 1013,7 hPa 0,0 l/m 5,1 km/h (1 Bft) O-NO45 60 0 min 426 lux 0 W/m
17.08.2016 06:27 14,4 C 18,0 C 74 % 1013,7 hPa 0,0 l/m 9,0 km/h (2 Bft) NO45 35 0 min 632 lux 0 W/m
17.08.2016 06:32 14,3 C 17,9 C 74 % 1013,7 hPa 0,0 l/m 6,4 km/h (2 Bft) O-NO22.5 75 0 min 889 lux 6 W/m
17.08.2016 06:37 14,3 C 17,8 C 74 % 1013,7 hPa 0,0 l/m 0,3 km/h (0 Bft) O-NO 70 0 min 1,03 klux 7 W/m
17.08.2016 06:42 14,2 C 17,5 C 74 % 1013,7 hPa 0,0 l/m 0,0 km/h (0 Bft) NO 50 0 min 1,32 klux 9 W/m
17.08.2016 06:47 14,1 C 17,8 C 74 % 1013,7 hPa 0,0 l/m 0,4 km/h (0 Bft) NO 50 0 min 1,63 klux 11 W/m
17.08.2016 06:52 14,2 C 17,9 C 75 % 1013,7 hPa 0,0 l/m 2,6 km/h (1 Bft) O-NO45 60 0 min 1,97 klux 13 W/m
17.08.2016 06:57 14,4 C 17,8 C 74 % 1013,7 hPa 0,0 l/m 0,9 km/h (0 Bft) NO45 40 0 min 2,30 klux 16 W/m
17.08.2016 07:02 14,4 C 18,0 C 74 % 1013,7 hPa 0,0 l/m 12,6 km/h (3 Bft) O-NO67.5 70 0 min 2,62 klux 18 W/m
17.08.2016 07:07 14,5 C 18,0 C 73 % 1013,7 hPa 0,0 l/m 1,3 km/h (1 Bft) NO67.5 45 0 min 3,01 klux 21 W/m
17.08.2016 07:12 14,5 C 18,2 C 73 % 1013,7 hPa 0,0 l/m 1,0 km/h (0 Bft) O 80 0 min 3,15 klux 22 W/m
17.08.2016 07:17 14,5 C 18,0 C 73 % 1013,7 hPa 0,0 l/m 14,0 km/h (3 Bft) O45 95 0 min 3,41 klux 23 W/m
17.08.2016 07:22 14,5 C 18,0 C 73 % 1013,7 hPa 0,0 l/m 11,7 km/h (2 Bft) O-SO22.5 105 0 min 3,81 klux 26 W/m
17.08.2016 07:27 14,5 C 18,0 C 73 % 1013,7 hPa 0,0 l/m 9,8 km/h (2 Bft) O22.5 95 0 min 4,10 klux 28 W/m
17.08.2016 07:31 14,6 C 18,0 C 73 % 1013,7 hPa 0,0 l/m 12,1 km/h (2 Bft) O45 85 0 min 4,10 klux 28 W/m
17.08.2016 07:37 14,7 C 17,9 C 73 % 1013,7 hPa 0,0 l/m 0,4 km/h (0 Bft) O22.5 95 0 min 4,10 klux 28 W/m
17.08.2016 07:42 14,8 C 18,0 C 73 % 1013,7 hPa 0,0 l/m 1,6 km/h (1 Bft) O22.5 85 0 min 4,90 klux 34 W/m
17.08.2016 07:47 15,0 C 18,2 C 73 % 1013,7 hPa 0,0 l/m 11,3 km/h (2 Bft) O22.5 85 5 min 20,2 klux 138 W/m
17.08.2016 07:52 15,6 C 18,2 C 70 % 1013,7 hPa 0,0 l/m 10,7 km/h (2 Bft) O45 100 5 min 21,8 klux 149 W/m
17.08.2016 07:56 15,8 C 18,1 C 69 % 1013,7 hPa 0,0 l/m 11,1 km/h (2 Bft) O45 90 4 min 23,4 klux 160 W/m
17.08.2016 08:02 16,0 C 18,2 C 69 % 1013,7 hPa 0,0 l/m 2,2 km/h (1 Bft) O22.5 90 6 min 24,1 klux 165 W/m
17.08.2016 08:07 16,4 C 18,2 C 68 % 1013,7 hPa 0,0 l/m 11,9 km/h (2 Bft) O-NO45 70 5 min 25,6 klux 175 W/m
17.08.2016 08:12 16,4 C 18,2 C 67 % 1013,7 hPa 0,0 l/m 15,0 km/h (3 Bft) O22.5 80 5 min 25,6 klux 175 W/m
17.08.2016 08:17 16,7 C 18,3 C 66 % 1013,7 hPa 0,0 l/m 14,6 km/h (3 Bft) O45 80 5 min 29,3 klux 200 W/m
17.08.2016 08:22 16,8 C 18,4 C 66 % 1013,7 hPa 0,0 l/m 12,3 km/h (2 Bft) O-SO45 105 5 min 30,0 klux 205 W/m
17.08.2016 08:27 17,0 C 18,4 C 65 % 1013,7 hPa 0,0 l/m 14,7 km/h (3 Bft) O22.5 95 5 min 31,3 klux 214 W/m
17.08.2016 08:32 17,1 C 18,4 C 65 % 1013,7 hPa 0,0 l/m 11,8 km/h (2 Bft) O22.5 80 5 min 32,8 klux 224 W/m
17.08.2016 08:37 17,3 C 18,5 C 65 % 1013,7 hPa 0,0 l/m 13,4 km/h (3 Bft) O45 90 5 min 34,0 klux 233 W/m
17.08.2016 08:41 17,4 C 18,6 C 64 % 1013,7 hPa 0,0 l/m 9,7 km/h (2 Bft) O-SO45 105 4 min 35,3 klux 241 W/m
17.08.2016 08:47 17,6 C 18,8 C 64 % 1013,7 hPa 0,0 l/m 16,4 km/h (3 Bft) O22.5 90 6 min 36,5 klux 250 W/m
17.08.2016 08:52 17,7 C 18,8 C 63 % 1013,7 hPa 0,0 l/m 13,4 km/h (3 Bft) O45 95 5 min 38,0 klux 260 W/m
17.08.2016 08:57 17,9 C 18,9 C 63 % 1013,7 hPa 0,0 l/m 9,7 km/h (2 Bft) O22.5 85 5 min 39,4 klux 269 W/m
17.08.2016 09:02 18,2 C 18,8 C 63 % 1013,7 hPa 0,0 l/m 16,5 km/h (3 Bft) O22.5 80 5 min 40,8 klux 279 W/m
17.08.2016 09:07 18,2 C 18,9 C 62 % 1013,7 hPa 0,0 l/m 17,5 km/h (3 Bft) O45 95 5 min 42,0 klux 287 W/m
17.08.2016 09:12 18,4 C 19,1 C 61 % 1013,7 hPa 0,0 l/m 14,3 km/h (3 Bft) O45 95 5 min 43,5 klux 298 W/m
17.08.2016 09:17 18,4 C 19,1 C 61 % 1013,7 hPa 0,0 l/m 13,1 km/h (3 Bft) O-NO45 65 5 min 43,5 klux 298 W/m
17.08.2016 09:22 18,6 C 19,1 C 61 % 1013,7 hPa 0,0 l/m 12,4 km/h (2 Bft) O45 80 5 min 45,5 klux 311 W/m
17.08.2016 09:27 18,9 C 19,3 C 61 % 1013,7 hPa 0,0 l/m 12,9 km/h (3 Bft) O45 95 5 min 46,8 klux 320 W/m
17.08.2016 09:32 19,1 C 19,3 C 60 % 1013,7 hPa 0,0 l/m 0,9 km/h (0 Bft) O-NO22.5 65 5 min 48,0 klux 328 W/m
17.08.2016 09:37 19,1 C 19,4 C 60 % 1013,7 hPa 0,0 l/m 14,1 km/h (3 Bft) O22.5 85 5 min 48,5 klux 332 W/m
17.08.2016 09:42 19,4 C 19,4 C 59 % 1013,7 hPa 0,0 l/m 16,8 km/h (3 Bft) O67.5 80 5 min 50,4 klux 345 W/m
17.08.2016 09:47 19,6 C 19,5 C 59 % 1012,7 hPa 0,0 l/m 15,5 km/h (3 Bft) O45 80 5 min 51,5 klux 352 W/m
17.08.2016 09:52 19,6 C 19,6 C 58 % 1012,7 hPa 0,0 l/m 12,8 km/h (3 Bft) O45 95 5 min 52,8 klux 361 W/m
17.08.2016 09:57 19,8 C 19,5 C 58 % 1013,7 hPa 0,0 l/m 14,3 km/h (3 Bft) O22.5 90 5 min 53,9 klux 369 W/m
17.08.2016 10:02 20,1 C 19,6 C 58 % 1013,7 hPa 0,0 l/m 10,5 km/h (2 Bft) O45 85 5 min 54,9 klux 376 W/m
17.08.2016 10:07 20,2 C 19,7 C 58 % 1012,6 hPa 0,0 l/m 16,2 km/h (3 Bft) O-NO22.5 75 5 min 55,6 klux 380 W/m
17.08.2016 10:12 20,5 C 19,8 C 58 % 1012,6 hPa 0,0 l/m 9,4 km/h (2 Bft) O45 80 5 min 56,7 klux 388 W/m
17.08.2016 10:17 20,6 C 19,9 C 56 % 1012,6 hPa 0,0 l/m 13,6 km/h (3 Bft) O22.5 90 5 min 57,9 klux 396 W/m
17.08.2016 10:22 20,8 C 20,0 C 56 % 1012,6 hPa 0,0 l/m 12,5 km/h (2 Bft) O22.5 90 5 min 58,9 klux 403 W/m
17.08.2016 10:27 20,8 C 20,1 C 55 % 1012,6 hPa 0,0 l/m 16,6 km/h (3 Bft) O45 100 5 min 60,0 klux 410 W/m
17.08.2016 10:32 20,9 C 20,1 C 56 % 1012,6 hPa 0,0 l/m 13,2 km/h (3 Bft) O67.5 100 5 min 61,1 klux 418 W/m
17.08.2016 10:37 21,2 C 20,1 C 56 % 1012,6 hPa 0,0 l/m 10,5 km/h (2 Bft) O-SO45 115 5 min 61,9 klux 423 W/m
17.08.2016 10:42 21,5 C 20,2 C 56 % 1012,6 hPa 0,0 l/m 10,8 km/h (2 Bft) O67.5 90 5 min 62,8 klux 430 W/m
17.08.2016 10:47 21,9 C 20,3 C 54 % 1012,6 hPa 0,0 l/m 15,1 km/h (3 Bft) O-SO67.5 105 5 min 64,0 klux 438 W/m
17.08.2016 10:52 21,7 C 20,3 C 54 % 1012,6 hPa 0,0 l/m 13,6 km/h (3 Bft) O-SO67.5 115 5 min 64,6 klux 442 W/m
17.08.2016 10:57 21,8 C 20,3 C 55 % 1012,6 hPa 0,0 l/m 11,3 km/h (2 Bft) O-SO67.5 110 5 min 65,8 klux 450 W/m
17.08.2016 11:02 21,8 C 20,3 C 54 % 1012,6 hPa 0,0 l/m 13,9 km/h (3 Bft) O-SO45 115 5 min 66,2 klux 453 W/m
17.08.2016 11:07 22,0 C 20,6 C 54 % 1012,6 hPa 0,0 l/m 14,8 km/h (3 Bft) O-SO45 115 5 min 67,2 klux 460 W/m
17.08.2016 11:12 22,0 C 20,5 C 53 % 1012,6 hPa 0,0 l/m 14,8 km/h (3 Bft) O-SO45 115 5 min 68,1 klux 466 W/m
17.08.2016 11:17 22,3 C 20,6 C 53 % 1012,6 hPa 0,0 l/m 20,6 km/h (4 Bft) O-NO45 70 5 min 69,0 klux 472 W/m
17.08.2016 11:22 22,2 C 20,6 C 53 % 1012,6 hPa 0,0 l/m 20,4 km/h (4 Bft) O-SO45 105 5 min 69,6 klux 476 W/m
17.08.2016 11:27 22,5 C 20,7 C 51 % 1012,6 hPa 0,0 l/m 18,1 km/h (3 Bft) O45 90 5 min 70,3 klux 481 W/m
17.08.2016 11:32 22,4 C 20,7 C 52 % 1012,6 hPa 0,0 l/m 18,5 km/h (3 Bft) O67.5 90 5 min 71,0 klux 486 W/m
17.08.2016 11:37 22,4 C 20,7 C 52 % 1012,6 hPa 0,0 l/m 11,5 km/h (2 Bft) SO45 140 5 min 71,4 klux 488 W/m
17.08.2016 11:42 22,8 C 21,0 C 52 % 1012,6 hPa 0,0 l/m 11,3 km/h (2 Bft) O-NO67.5 65 5 min 71,9 klux 492 W/m
17.08.2016 11:47 22,8 C 21,2 C 51 % 1012,6 hPa 0,0 l/m 10,9 km/h (2 Bft) O-SO45 120 5 min 73,2 klux 501 W/m
17.08.2016 11:52 23,0 C 20,9 C 51 % 1012,6 hPa 0,0 l/m 14,3 km/h (3 Bft) O-SO67.5 105 5 min 73,3 klux 501 W/m
17.08.2016 11:57 23,1 C 20,9 C 50 % 1012,6 hPa 0,0 l/m 20,1 km/h (4 Bft) O67.5 85 5 min 74,0 klux 506 W/m
17.08.2016 12:02 23,3 C 20,9 C 51 % 1012,6 hPa 0,0 l/m 20,1 km/h (4 Bft) O67.5 85 5 min 74,8 klux 512 W/m
17.08.2016 12:07 23,4 C 21,2 C 50 % 1012,6 hPa 0,0 l/m 14,3 km/h (3 Bft) O45 85 5 min 76,0 klux 520 W/m
17.08.2016 12:12 23,6 C 21,3 C 48 % 1012,6 hPa 0,0 l/m 13,6 km/h (3 Bft) O-SO45 120 5 min 76,5 klux 523 W/m
17.08.2016 12:17 23,8 C 21,3 C 47 % 1012,6 hPa 0,0 l/m 15,1 km/h (3 Bft) SO67.5 135 5 min 76,9 klux 526 W/m
17.08.2016 12:22 23,8 C 21,5 C 48 % 1012,6 hPa 0,0 l/m 14,0 km/h (3 Bft) SO67.5 135 5 min 77,3 klux 529 W/m
17.08.2016 12:27 23,7 C 21,1 C 48 % 1012,6 hPa 0,0 l/m 17,9 km/h (3 Bft) O-SO67.5 105 5 min 77,5 klux 530 W/m
17.08.2016 12:32 23,8 C 21,1 C 46 % 1012,6 hPa 0,0 l/m 16,0 km/h (3 Bft) O45 95 5 min 77,7 klux 531 W/m
17.08.2016 12:36 23,6 C 21,1 C 48 % 1012,6 hPa 0,0 l/m 17,0 km/h (3 Bft) O45 90 4 min 78,6 klux 538 W/m
17.08.2016 12:42 24,0 C 21,8 C 46 % 1012,6 hPa 0,0 l/m 10,5 km/h (2 Bft) O67.5 90 6 min 78,9 klux 540 W/m
17.08.2016 12:47 24,1 C 21,3 C 45 % 1012,6 hPa 0,0 l/m 15,8 km/h (3 Bft) O-SO45 120 5 min 80,0 klux 547 W/m
17.08.2016 12:52 24,1 C 22,1 C 45 % 1012,6 hPa 0,0 l/m 13,3 km/h (3 Bft) O-SO67.5 115 5 min 79,5 klux 544 W/m
17.08.2016 12:57 24,4 C 22,1 C 45 % 1012,6 hPa 0,0 l/m 9,6 km/h (2 Bft) SO45 130 5 min 80,8 klux 553 W/m
17.08.2016 13:02 24,6 C 22,0 C 43 % 1012,6 hPa 0,0 l/m 14,4 km/h (3 Bft) SO45 145 5 min 81,3 klux 556 W/m
17.08.2016 13:07 24,6 C 21,6 C 45 % 1011,6 hPa 0,0 l/m 10,4 km/h (2 Bft) SO45 135 5 min 80,8 klux 553 W/m
17.08.2016 13:12 24,8 C 21,9 C 44 % 1011,6 hPa 0,0 l/m 13,3 km/h (3 Bft) O-NO45 75 5 min 80,5 klux 551 W/m
17.08.2016 13:17 24,8 C 21,9 C 42 % 1011,6 hPa 0,0 l/m 12,3 km/h (2 Bft) O45 100 5 min 80,0 klux 547 W/m
17.08.2016 13:22 25,1 C 21,8 C 42 % 1011,6 hPa 0,0 l/m 16,3 km/h (3 Bft) O45 95 5 min 81,0 klux 554 W/m
17.08.2016 13:27 25,0 C 22,0 C 42 % 1011,6 hPa 0,0 l/m 14,7 km/h (3 Bft) SO67.5 135 5 min 80,1 klux 548 W/m
17.08.2016 13:32 24,9 C 22,0 C 41 % 1011,6 hPa 0,0 l/m 12,5 km/h (2 Bft) O67.5 85 5 min 79,8 klux 546 W/m
17.08.2016 13:37 25,0 C 21,9 C 42 % 1011,6 hPa 0,0 l/m 10,1 km/h (2 Bft) O67.5 90 5 min 81,2 klux 555 W/m
17.08.2016 13:42 25,3 C 21,8 C 41 % 1011,6 hPa 0,0 l/m 15,0 km/h (3 Bft) O22.5 100 5 min 81,6 klux 558 W/m
17.08.2016 13:46 25,4 C 21,8 C 40 % 1011,6 hPa 0,0 l/m 20,5 km/h (4 Bft) NO22.5 50 4 min 79,6 klux 544 W/m
17.08.2016 13:52 25,4 C 21,8 C 39 % 1011,6 hPa 0,0 l/m 14,8 km/h (3 Bft) NO45 50 6 min 80,7 klux 552 W/m
17.08.2016 13:57 25,6 C 22,6 C 38 % 1011,6 hPa 0,0 l/m 14,7 km/h (3 Bft) O 100 5 min 81,1 klux 555 W/m
17.08.2016 14:02 25,5 C 21,9 C 38 % 1011,6 hPa 0,0 l/m 22,1 km/h (4 Bft) O-NO45 75 5 min 81,1 klux 555 W/m
17.08.2016 14:07 25,5 C 23,1 C 39 % 1011,6 hPa 0,0 l/m 13,3 km/h (3 Bft) O45 90 5 min 80,2 klux 549 W/m
17.08.2016 14:12 25,6 C 22,2 C 39 % 1011,6 hPa 0,0 l/m 16,3 km/h (3 Bft) O67.5 90 5 min 80,1 klux 548 W/m
17.08.2016 14:17 25,7 C 22,3 C 38 % 1011,6 hPa 0,0 l/m 2,7 km/h (1 Bft) SO67.5 125 5 min 79,9 klux 547 W/m
17.08.2016 14:22 25,6 C 23,2 C 39 % 1011,6 hPa 0,0 l/m 13,6 km/h (3 Bft) O45 95 5 min 79,2 klux 542 W/m
17.08.2016 14:27 25,9 C 23,5 C 38 % 1011,6 hPa 0,0 l/m 15,7 km/h (3 Bft) O-SO67.5 110 5 min 79,3 klux 542 W/m
17.08.2016 14:31 26,0 C 22,9 C 38 % 1011,6 hPa 0,0 l/m 10,1 km/h (2 Bft) O67.5 100 4 min 79,2 klux 542 W/m
17.08.2016 14:37 26,2 C 22,9 C 37 % 1011,6 hPa 0,0 l/m 18,3 km/h (3 Bft) O67.5 90 6 min 79,2 klux 542 W/m
17.08.2016 14:42 26,2 C 22,9 C 36 % 1011,6 hPa 0,0 l/m 17,4 km/h (3 Bft) N-NO45 20 5 min 78,4 klux 536 W/m
17.08.2016 14:47 26,3 C 22,7 C 36 % 1011,6 hPa 0,0 l/m 16,6 km/h (3 Bft) NO45 35 5 min 78,4 klux 536 W/m
17.08.2016 14:52 26,4 C 22,5 C 37 % 1011,6 hPa 0,0 l/m 13,3 km/h (3 Bft) NO45 50 5 min 77,6 klux 531 W/m
17.08.2016 14:57 26,2 C 22,6 C 36 % 1011,6 hPa 0,0 l/m 18,5 km/h (3 Bft) NO45 50 5 min 77,3 klux 529 W/m
17.08.2016 15:02 26,2 C 22,6 C 37 % 1011,6 hPa 0,0 l/m 14,6 km/h (3 Bft) O67.5 95 5 min 75,5 klux 516 W/m
17.08.2016 15:07 25,8 C 23,4 C 37 % 1011,6 hPa 0,0 l/m 14,0 km/h (3 Bft) O45 100 5 min 75,2 klux 514 W/m
17.08.2016 15:12 25,8 C 23,2 C 37 % 1011,6 hPa 0,0 l/m 18,9 km/h (3 Bft) O22.5 95 5 min 74,9 klux 512 W/m
17.08.2016 15:16 26,0 C 23,9 C 38 % 1011,6 hPa 0,0 l/m 8,6 km/h (2 Bft) O-SO45 110 4 min 74,8 klux 512 W/m
17.08.2016 15:22 26,0 C 22,8 C 35 % 1011,6 hPa 0,0 l/m 13,4 km/h (3 Bft) O-NO45 60 6 min 73,7 klux 504 W/m
17.08.2016 15:27 26,0 C 23,2 C 38 % 1011,6 hPa 0,0 l/m 19,3 km/h (3 Bft) O67.5 95 5 min 73,7 klux 504 W/m
17.08.2016 15:32 26,1 C 24,0 C 37 % 1011,6 hPa 0,0 l/m 16,8 km/h (3 Bft) O45 95 5 min 73,0 klux 499 W/m
17.08.2016 15:37 26,1 C 23,1 C 37 % 1010,6 hPa 0,0 l/m 15,8 km/h (3 Bft) O-NO67.5 65 5 min 72,6 klux 497 W/m
17.08.2016 15:41 26,6 C 23,2 C 34 % 1010,6 hPa 0,0 l/m 23,6 km/h (4 Bft) NO45 40 4 min 71,7 klux 490 W/m
17.08.2016 15:47 26,4 C 23,1 C 34 % 1010,6 hPa 0,0 l/m 20,4 km/h (4 Bft) O45 80 6 min 70,2 klux 480 W/m
17.08.2016 15:52 26,3 C 23,1 C 34 % 1010,6 hPa 0,0 l/m 18,8 km/h (3 Bft) N-NO45 25 5 min 69,1 klux 473 W/m
17.08.2016 15:57 26,5 C 23,4 C 34 % 1010,6 hPa 0,0 l/m 13,0 km/h (3 Bft) O-NO67.5 75 5 min 68,6 klux 469 W/m
17.08.2016 16:02 26,2 C 23,2 C 36 % 1010,6 hPa 0,0 l/m 17,0 km/h (3 Bft) O45 90 5 min 68,2 klux 466 W/m
17.08.2016 16:07 26,0 C 23,2 C 35 % 1010,6 hPa 0,0 l/m 12,9 km/h (3 Bft) O-SO45 120 5 min 67,4 klux 461 W/m
17.08.2016 16:12 26,0 C 23,2 C 35 % 1010,6 hPa 0,0 l/m 15,0 km/h (3 Bft) O-SO67.5 105 5 min 66,5 klux 455 W/m
17.08.2016 16:17 26,0 C 23,4 C 35 % 1010,6 hPa 0,0 l/m 17,5 km/h (3 Bft) NO45 35 5 min 65,3 klux 447 W/m
17.08.2016 16:22 26,2 C 23,5 C 36 % 1010,6 hPa 0,0 l/m 16,8 km/h (3 Bft) O45 85 5 min 65,4 klux 447 W/m
17.08.2016 16:27 26,6 C 23,5 C 37 % 1010,6 hPa 0,0 l/m 14,5 km/h (3 Bft) O45 85 5 min 65,0 klux 445 W/m
17.08.2016 16:32 26,7 C 24,2 C 37 % 1010,6 hPa 0,0 l/m 8,1 km/h (2 Bft) O-SO22.5 105 5 min 63,8 klux 436 W/m
17.08.2016 16:37 26,6 C 24,5 C 34 % 1010,6 hPa 0,0 l/m 13,2 km/h (3 Bft) N-NO45 20 5 min 62,5 klux 428 W/m
17.08.2016 16:42 26,7 C 23,5 C 34 % 1010,6 hPa 0,0 l/m 15,0 km/h (3 Bft) NO45 40 5 min 61,9 klux 423 W/m
17.08.2016 16:47 26,7 C 24,0 C 35 % 1010,6 hPa 0,0 l/m 13,3 km/h (3 Bft) O-SO45 115 5 min 61,4 klux 420 W/m
17.08.2016 16:52 26,5 C 24,8 C 36 % 1010,6 hPa 0,0 l/m 2,7 km/h (1 Bft) SO22.5 130 5 min 59,3 klux 406 W/m
17.08.2016 16:57 26,5 C 24,2 C 36 % 1010,6 hPa 0,0 l/m 18,8 km/h (3 Bft) O-SO45 105 5 min 58,6 klux 401 W/m
17.08.2016 17:02 26,5 C 24,1 C 35 % 1010,6 hPa 0,0 l/m 12,6 km/h (3 Bft) O-SO67.5 115 5 min 58,3 klux 399 W/m
17.08.2016 17:07 26,4 C 23,7 C 36 % 1010,6 hPa 0,0 l/m 7,6 km/h (2 Bft) O67.5 95 5 min 56,6 klux 387 W/m
17.08.2016 17:12 26,5 C 24,9 C 36 % 1010,6 hPa 0,0 l/m 11,0 km/h (2 Bft) O-NO45 70 5 min 55,6 klux 380 W/m
17.08.2016 17:17 26,6 C 25,6 C 35 % 1010,6 hPa 0,0 l/m 15,0 km/h (3 Bft) O-NO67.5 70 5 min 55,2 klux 378 W/m
17.08.2016 17:22 26,5 C 25,6 C 35 % 1010,6 hPa 0,0 l/m 10,6 km/h (2 Bft) S-SO22.5 150 5 min 53,9 klux 369 W/m
17.08.2016 17:27 26,1 C 24,3 C 34 % 1010,6 hPa 0,0 l/m 11,5 km/h (2 Bft) SO67.5 140 5 min 52,8 klux 361 W/m
17.08.2016 17:32 26,3 C 23,6 C 34 % 1010,6 hPa 0,0 l/m 12,9 km/h (3 Bft) O45 90 5 min 51,8 klux 354 W/m
17.08.2016 17:37 26,1 C 23,6 C 34 % 1010,6 hPa 0,0 l/m 12,9 km/h (3 Bft) O-NO22.5 75 5 min 50,6 klux 346 W/m
17.08.2016 17:42 26,1 C 23,7 C 35 % 1010,6 hPa 0,0 l/m 6,8 km/h (2 Bft) O45 90 5 min 49,3 klux 337 W/m
17.08.2016 17:47 26,2 C 24,3 C 34 % 1010,6 hPa 0,0 l/m 2,1 km/h (1 Bft) SO45 125 5 min 46,7 klux 319 W/m
17.08.2016 17:52 26,0 C 23,8 C 35 % 1010,6 hPa 0,0 l/m 13,1 km/h (3 Bft) O-SO45 115 5 min 46,5 klux 318 W/m
17.08.2016 17:57 26,0 C 23,9 C 34 % 1010,6 hPa 0,0 l/m 10,2 km/h (2 Bft) SO67.5 130 5 min 45,6 klux 312 W/m
17.08.2016 18:02 25,9 C 23,7 C 34 % 1010,6 hPa 0,0 l/m 10,9 km/h (2 Bft) O45 80 5 min 44,7 klux 306 W/m
17.08.2016 18:07 26,0 C 23,8 C 35 % 1009,6 hPa 0,0 l/m 8,3 km/h (2 Bft) O22.5 85 5 min 44,1 klux 302 W/m
17.08.2016 18:12 26,0 C 23,7 C 34 % 1009,6 hPa 0,0 l/m 10,2 km/h (2 Bft) O45 95 5 min 42,3 klux 289 W/m
17.08.2016 18:17 26,1 C 23,5 C 33 % 1009,6 hPa 0,0 l/m 1,6 km/h (1 Bft) O22.5 80 5 min 41,3 klux 282 W/m
17.08.2016 18:22 26,1 C 23,6 C 33 % 1009,6 hPa 0,0 l/m 11,7 km/h (2 Bft) O-NO22.5 60 5 min 39,6 klux 271 W/m
17.08.2016 18:27 26,2 C 23,7 C 33 % 1009,6 hPa 0,0 l/m 7,6 km/h (2 Bft) O 90 5 min 38,6 klux 264 W/m
17.08.2016 18:32 26,4 C 23,5 C 33 % 1009,6 hPa 0,0 l/m 12,0 km/h (2 Bft) NO45 35 5 min 36,5 klux 250 W/m
17.08.2016 18:37 26,4 C 23,5 C 33 % 1009,6 hPa 0,0 l/m 14,3 km/h (3 Bft) N-NO22.5 30 5 min 35,2 klux 241 W/m
17.08.2016 18:42 26,4 C 23,5 C 33 % 1009,6 hPa 0,0 l/m 10,0 km/h (2 Bft) NO22.5 40 5 min 33,4 klux 228 W/m
17.08.2016 18:47 26,0 C 23,2 C 34 % 1009,6 hPa 0,0 l/m 2,2 km/h (1 Bft) N-NO22.5 30 5 min 32,1 klux 220 W/m
17.08.2016 18:52 25,9 C 23,2 C 33 % 1009,6 hPa 0,0 l/m 12,8 km/h (3 Bft) O-NO45 75 5 min 31,2 klux 213 W/m
17.08.2016 18:57 25,8 C 23,4 C 33 % 1009,6 hPa 0,0 l/m 11,0 km/h (2 Bft) NO67.5 45 5 min 30,6 klux 209 W/m
17.08.2016 19:02 25,7 C 23,4 C 32 % 1009,6 hPa 0,0 l/m 19,0 km/h (3 Bft) NO22.5 50 5 min 29,6 klux 202 W/m
17.08.2016 19:07 25,9 C 23,2 C 32 % 1009,6 hPa 0,0 l/m 17,3 km/h (3 Bft) NO22.5 45 5 min 29,6 klux 202 W/m
17.08.2016 19:12 25,7 C 23,1 C 33 % 1009,6 hPa 0,0 l/m 15,1 km/h (3 Bft) NO45 50 5 min 27,2 klux 186 W/m
17.08.2016 19:17 25,7 C 23,2 C 33 % 1009,6 hPa 0,0 l/m 19,8 km/h (3 Bft) NO45 45 5 min 24,6 klux 168 W/m
17.08.2016 19:22 25,7 C 23,1 C 32 % 1009,6 hPa 0,0 l/m 16,5 km/h (3 Bft) O-NO45 65 5 min 23,9 klux 163 W/m
17.08.2016 19:27 25,5 C 23,1 C 32 % 1009,6 hPa 0,0 l/m 13,6 km/h (3 Bft) O-NO67.5 65 5 min 22,6 klux 155 W/m
17.08.2016 19:32 25,4 C 23,0 C 32 % 1009,6 hPa 0,0 l/m 15,0 km/h (3 Bft) NO22.5 55 5 min 22,6 klux 155 W/m
17.08.2016 19:37 25,4 C 23,0 C 33 % 1009,6 hPa 0,0 l/m 17,2 km/h (3 Bft) NO45 40 5 min 19,8 klux 135 W/m
17.08.2016 19:42 25,3 C 23,0 C 33 % 1009,6 hPa 0,0 l/m 15,0 km/h (3 Bft) NO22.5 35 5 min 18,8 klux 129 W/m
17.08.2016 19:47 25,1 C 23,0 C 33 % 1009,6 hPa 0,0 l/m 13,8 km/h (3 Bft) O-NO45 65 5 min 17,3 klux 118 W/m
17.08.2016 19:52 24,8 C 23,0 C 33 % 1009,6 hPa 0,0 l/m 14,3 km/h (3 Bft) O-NO45 70 5 min 16,5 klux 113 W/m
17.08.2016 19:57 24,7 C 22,9 C 33 % 1009,6 hPa 0,0 l/m 14,6 km/h (3 Bft) NO45 50 5 min 14,9 klux 102 W/m
17.08.2016 20:02 24,6 C 22,8 C 33 % 1009,6 hPa 0,0 l/m 15,0 km/h (3 Bft) O-NO45 65 5 min 13,4 klux 92 W/m
17.08.2016 20:07 24,6 C 22,8 C 34 % 1009,6 hPa 0,0 l/m 12,7 km/h (3 Bft) NO22.5 50 5 min 11,6 klux 79 W/m
17.08.2016 20:12 24,2 C 22,7 C 35 % 1009,6 hPa 0,0 l/m 21,6 km/h (4 Bft) NO45 55 5 min 10,5 klux 72 W/m
17.08.2016 20:17 24,0 C 22,8 C 37 % 1009,6 hPa 0,0 l/m 10,9 km/h (2 Bft) O-NO22.5 65 5 min 8,76 klux 60 W/m
17.08.2016 20:22 23,6 C 22,7 C 35 % 1009,6 hPa 0,0 l/m 25,6 km/h (4 Bft) O-NO22.5 70 5 min 5,76 klux 39 W/m
17.08.2016 20:27 23,3 C 22,6 C 35 % 1009,6 hPa 0,0 l/m 18,6 km/h (3 Bft) O-NO45 70 0 min 2,19 klux 15 W/m
17.08.2016 20:32 23,3 C 22,7 C 35 % 1009,6 hPa 0,0 l/m 18,6 km/h (3 Bft) O-NO45 70 0 min 1,96 klux 13 W/m
17.08.2016 20:37 22,9 C 22,7 C 37 % 1009,6 hPa 0,0 l/m 13,2 km/h (3 Bft) O22.5 80 0 min 1,38 klux 9 W/m
17.08.2016 20:42 22,7 C 22,6 C 38 % 1009,6 hPa 0,0 l/m 15,1 km/h (3 Bft) O-NO22.5 75 0 min 1,17 klux 8 W/m
17.08.2016 20:47 22,6 C 22,6 C 38 % 1009,6 hPa 0,0 l/m 9,8 km/h (2 Bft) O-NO45 60 0 min 860 lux 0 W/m
17.08.2016 20:52 22,4 C 22,6 C 39 % 1009,6 hPa 0,0 l/m 13,0 km/h (3 Bft) O-NO22.5 65 0 min 595 lux 0 W/m
17.08.2016 20:57 22,1 C 22,5 C 40 % 1009,6 hPa 0,0 l/m 6,7 km/h (2 Bft) NO 55 0 min 389 lux 0 W/m
17.08.2016 21:02 22,0 C 22,5 C 40 % 1009,6 hPa 0,0 l/m 17,1 km/h (3 Bft) O-NO45 60 0 min 239 lux 0 W/m
17.08.2016 21:07 22,0 C 22,3 C 41 % 1009,6 hPa 0,0 l/m 10,5 km/h (2 Bft) NO22.5 50 0 min 134 lux 0 W/m
17.08.2016 21:12 21,7 C 22,2 C 42 % 1009,6 hPa 0,0 l/m 13,0 km/h (3 Bft) NO22.5 50 0 min 68 lux 0 W/m
17.08.2016 21:17 21,6 C 22,1 C 44 % 1009,6 hPa 0,0 l/m 14,3 km/h (3 Bft) N-NO22.5 30 0 min 31 lux 0 W/m
17.08.2016 21:22 21,5 C 22,1 C 44 % 1009,6 hPa 0,0 l/m 15,3 km/h (3 Bft) N-NO22.5 25 0 min 12 lux 0 W/m
17.08.2016 21:27 21,3 C 22,0 C 46 % 1009,6 hPa 0,0 l/m 18,5 km/h (3 Bft) N-NO45 30 0 min 5 lux 0 W/m
17.08.2016 21:32 21,2 C 22,0 C 47 % 1009,6 hPa 0,0 l/m 19,2 km/h (3 Bft) NO22.5 40 0 min 2 lux 0 W/m
17.08.2016 21:37 21,1 C 21,9 C 47 % 1009,6 hPa 0,0 l/m 17,4 km/h (3 Bft) NO22.5 35 0 min 2 lux 0 W/m
17.08.2016 21:42 20,9 C 21,9 C 48 % 1010,6 hPa 0,0 l/m 11,5 km/h (2 Bft) NO22.5 50 0 min 0 lux 0 W/m
17.08.2016 21:47 20,8 C 21,9 C 49 % 1010,6 hPa 0,0 l/m 12,0 km/h (2 Bft) NO22.5 35 0 min 0 lux 0 W/m
17.08.2016 21:52 20,7 C 21,8 C 50 % 1010,6 hPa 0,0 l/m 11,5 km/h (2 Bft) NO22.5 40 0 min 0 lux 0 W/m
17.08.2016 21:57 20,5 C 21,8 C 50 % 1010,6 hPa 0,0 l/m 14,6 km/h (3 Bft) NO22.5 45 0 min 0 lux 0 W/m
17.08.2016 22:02 20,1 C 21,8 C 52 % 1010,6 hPa 0,0 l/m 11,5 km/h (2 Bft) NO45 50 0 min 0 lux 0 W/m
17.08.2016 22:07 20,1 C 21,8 C 52 % 1010,6 hPa 0,0 l/m 12,0 km/h (2 Bft) NO22.5 35 0 min 0 lux 0 W/m
17.08.2016 22:12 20,1 C 21,7 C 52 % 1010,6 hPa 0,0 l/m 11,6 km/h (2 Bft) N-NO22.5 30 0 min 0 lux 0 W/m
17.08.2016 22:17 19,9 C 21,6 C 53 % 1010,6 hPa 0,0 l/m 10,5 km/h (2 Bft) NO22.5 45 0 min 0 lux 0 W/m
17.08.2016 22:22 19,7 C 21,7 C 54 % 1010,6 hPa 0,0 l/m 7,8 km/h (2 Bft) NO22.5 50 0 min 0 lux 0 W/m
17.08.2016 22:27 19,7 C 21,7 C 54 % 1010,6 hPa 0,0 l/m 15,1 km/h (3 Bft) NO22.5 50 0 min 0 lux 0 W/m
17.08.2016 22:32 19,6 C 21,5 C 54 % 1010,6 hPa 0,0 l/m 14,1 km/h (3 Bft) NO22.5 45 0 min 0 lux 0 W/m
17.08.2016 22:37 19,5 C 21,5 C 55 % 1010,7 hPa 0,0 l/m 11,7 km/h (2 Bft) NO22.5 35 0 min 0 lux 0 W/m
17.08.2016 22:42 19,5 C 21,5 C 56 % 1010,7 hPa 0,0 l/m 12,3 km/h (2 Bft) NO22.5 35 0 min 0 lux 0 W/m
17.08.2016 22:47 19,5 C 21,4 C 56 % 1010,7 hPa 0,0 l/m 13,2 km/h (3 Bft) NO22.5 45 0 min 0 lux 0 W/m
17.08.2016 22:52 19,4 C 21,3 C 56 % 1010,7 hPa 0,0 l/m 13,0 km/h (3 Bft) NO22.5 35 0 min 0 lux 0 W/m
17.08.2016 22:57 19,4 C 21,2 C 56 % 1009,6 hPa 0,0 l/m 12,6 km/h (3 Bft) NO45 35 0 min 0 lux 0 W/m
17.08.2016 23:02 19,3 C 21,3 C 56 % 1009,6 hPa 0,0 l/m 10,8 km/h (2 Bft) NO22.5 35 0 min 0 lux 0 W/m
17.08.2016 23:07 19,2 C 21,2 C 57 % 1009,7 hPa 0,0 l/m 14,8 km/h (3 Bft) NO22.5 40 0 min 0 lux 0 W/m
17.08.2016 23:12 19,1 C 21,1 C 58 % 1009,7 hPa 0,0 l/m 14,1 km/h (3 Bft) NO22.5 40 0 min 0 lux 0 W/m
17.08.2016 23:17 19,0 C 21,1 C 58 % 1009,7 hPa 0,0 l/m 12,0 km/h (2 Bft) NO22.5 40 0 min 0 lux 0 W/m
17.08.2016 23:22 18,9 C 21,1 C 58 % 1009,7 hPa 0,0 l/m 10,4 km/h (2 Bft) NO22.5 35 0 min 0 lux 0 W/m
17.08.2016 23:27 18,8 C 21,1 C 58 % 1009,7 hPa 0,0 l/m 8,9 km/h (2 Bft) N-NO45 30 0 min 0 lux 0 W/m
17.08.2016 23:32 18,8 C 21,1 C 59 % 1009,7 hPa 0,0 l/m 11,7 km/h (2 Bft) NO45 35 0 min 0 lux 0 W/m
17.08.2016 23:37 18,7 C 21,0 C 59 % 1009,7 hPa 0,0 l/m 11,8 km/h (2 Bft) NO22.5 40 0 min 0 lux 0 W/m
17.08.2016 23:42 18,4 C 21,1 C 59 % 1009,7 hPa 0,0 l/m 10,1 km/h (2 Bft) N-NO22.5 20 0 min 0 lux 0 W/m
17.08.2016 23:47 18,4 C 20,9 C 60 % 1009,7 hPa 0,0 l/m 9,4 km/h (2 Bft) NO22.5 35 0 min 0 lux 0 W/m
17.08.2016 23:52 18,3 C 20,9 C 60 % 1009,7 hPa 0,0 l/m 9,6 km/h (2 Bft) NO22.5 35 0 min 0 lux 0 W/m
17.08.2016 23:57 18,2 C 20,9 C 60 % 1009,7 hPa 0,0 l/m 12,5 km/h (2 Bft) NO22.5 45 0 min 0 lux 0 W/m
_ Min-Zeit 05:37 06:42 19:02 18:32 - 04:07 - - - - -
Minimum _ 14,0 C 17,5 C 32 % 1009,6 hPa - 0,0 km/h (0 Bft) - - - - -
_ Max-Zeit 16:32 17:17 06:12 03:31 00:01 00:21 - - 08:02 13:42 13:42
Maximum _ 26,7 C 25,6 C 75 % 1014,7 hPa 0,0 l/m 31,3 km/h
O-NO (5 Bft)
- - 6 min 81,6 klux 558 W/m
Durchschnitt _ 20,6 C 20,8 C 53 % 1012,2 hPa #0,0 l/m 12,6 km/h (3 Bft) O - #12:40 h 29,6 klux 341 W/m